Location: Arbon
(43.0005°N, 0.7472°E)
Time: 14:43:19
(UTC+00:00)

Envisat - Pass Details

Date: 28 October 2020
Orbit: 764 x 766 km, 98.1° (Epoch: 30 November)

Event Time Altitude Azimuth Distance (km) Brightness Sun altitude
Rises 17:37:22 0° 185° (S) 3,218 6.4 -8.5°
Reaches altitude 10° 17:39:47 10° 192° (SSW) 2,297 5.8 -8.9°
Maximum altitude 17:44:33 41° 262° (W) 1,104 4.5 -9.8°
Drops below altitude 10° 17:49:21 10° 333° (NNW) 2,312 5.7 -10.7°
Sets 17:51:48 0° 340° (NNW) 3,243 6.4 -11.1°
